This is the latest recevied weather packets stored in our database for station/object KO4YAW. If no packets are shown the sender has not sent any weather packets the latest 10 day(s).
| Time | Temp. | Humidity | Pressure | Rain* | Wind** | Luminosity | Snow |
|---|---|---|---|---|---|---|---|
| 1777546534 | 3.89° C | 93% | 1020.5 hPa | 0 mm | - | 0 W/m² | - |
| 1777545634 | 3.89° C | 93% | 1020.5 hPa | 0 mm | - | 0 W/m² | - |
| 1777544734 | 3.89° C | 93% | 1020.4 hPa | 0 mm | - | 0 W/m² | - |
| 1777543834 | 3.89° C | 91% | 1020.4 hPa | 0 mm | - | 0 W/m² | - |
| 1777542934 | 4.44° C | 88% | 1020.4 hPa | 0 mm | - | 0 W/m² | - |
| 1777542034 | 5° C | 85% | 1020.5 hPa | 0 mm | - | 0 W/m² | - |
| 1777541134 | 5° C | 84% | 1020.4 hPa | 0 mm | - | 0 W/m² | - |
| 1777540234 | 5° C | 81% | 1020.3 hPa | 0 mm | - | 0 W/m² | - |
| 1777539334 | 5° C | 82% | 1020.2 hPa | 0 mm | - | 0 W/m² | - |
| 1777538434 | 5.56° C | 78% | 1020.3 hPa | 0 mm | - | 0 W/m² | - |
| 1777537534 | 6.11° C | 74% | 1020.2 hPa | 0 mm | - | 0 W/m² | - |
| 1777536634 | 6.67° C | 73% | 1020.3 hPa | 0 mm | - | 0 W/m² | - |
| 1777535734 | 6.11° C | 78% | 1020.3 hPa | 0 mm | - | 0 W/m² | - |
| 1777534834 | 6.11° C | 83% | 1020.3 hPa | 0 mm | - | 0 W/m² | - |
| 1777533934 | 6.11° C | 81% | 1020.4 hPa | 0 mm | - | 0 W/m² | - |
| 1777533034 | 6.11° C | 79% | 1020.5 hPa | 0 mm | - | 0 W/m² | - |
| 1777532134 | 6.11° C | 81% | 1020.6 hPa | 0 mm | - | 0 W/m² | - |
| 1777531234 | 5.56° C | 82% | 1020.8 hPa | 0 mm | - | 0 W/m² | - |
| 1777530334 | 5.56° C | 81% | 1020.9 hPa | 0 mm | - | 0 W/m² | - |
| 1777529434 | 5.56° C | 79% | 1020.9 hPa | 0 mm | - | 0 W/m² | - |
| 1777528534 | 6.67° C | 77% | 1021 hPa | 0 mm | - | 0 W/m² | - |
| 1777527634 | 6.67° C | 74% | 1021 hPa | 0 mm | - | 0 W/m² | - |
| 1777526734 | 7.78° C | 74% | 1021.1 hPa | 0 mm | - | 0 W/m² | - |
| 1777525834 | 7.78° C | 67% | 1021 hPa | 0 mm | - | 0 W/m² | - |
| 1777524934 | 7.78° C | 66% | 1021 hPa | 0 mm | - | 0 W/m² | - |
* Rain since midnight (hover to see other rain measurements)
** Current wind speed in m/s (hover to see current wind gust speed)